User: anonymous   Login
Location: Unspecified
(0.0000°N, 0.0000°E)
Time: 08:31:14
(UTC+00:00)
Language:

Transit 2A - Orbit

View from above orbital plane
View from above orbital plane
View from above satellite
View from above satellite

Ground track
Ground track

The orbit data is extracted from the following two-line orbital elements,

1 00045U 60007A   17020.20926445 -.00000083  00000-0  60345-5 0  9999
2 00045  66.6946  59.4469 0251280 142.5833 219.3064 14.33532660944352
Epoch (UTC): 20 January 2017 05:01:20
Eccentricity: 0.0251280
inclination: 66.6946°
perigee height: 600 km
apogee height: 960 km
right ascension of ascending node: 59.4469°
argument of perigee: 142.5833°
revolutions per day: 14.33532660
mean anomaly at epoch: 219.3064°
orbit number at epoch: 94435

The dashed part of the orbit path shows where the satellite is in the earth's shadow,  

DLR